Regional Weather Roundup
Issued by NWS

Home | Current Version | Previous Version | Text Only | Print | Product List | Glossary On
Versions: 1 2 3 4 5 6 7 8 9 10 11 12 13 14 15 16 17 18 19 20 21 22 23 24 25 26 27 28 29 30 31 32 33 34 35 36 37 38 39 40 41 42 43 44 45 46 47 48 49 50
000
ASUS43 KTOP 180159
RWRKS

WEATHER ROUNDUP FOR KANSAS
NATIONAL WEATHER SERVICE GOODLAND KS
800 PM CST TUE JAN 17 2017

NOTE:  "FAIR" INDICATES FEW OR NO CLOUDS BELOW 12,000 FEET WITH NO
SIGNIFICANT WEATHER AND/OR OBSTRUCTIONS TO VISIBILITY.

KSZ001>006-013>018-027>032-041>047-180300-
NORTHWEST KANSAS

CITY           SKY/WX    TMP DP  RH WIND       PRES   REMARKS
GOODLAND       CLEAR     33  30  88 SW7       30.03R
HAYS           CLEAR     34  29  82 CALM      30.10R
HILL CITY      CLEAR     27  25  92 SW3       30.08R
RUSSELL        CLEAR     34  29  82 S8        30.09R
$$

KSZ061>065-074>080-084>089-180300-
SOUTHWEST KANSAS

CITY           SKY/WX    TMP DP  RH WIND       PRES   REMARKS
DODGE CITY     CLOUDY    35  29  78 SE8       30.12R
ELKHART          N/A     33  25  72 S9          N/A
GARDEN CITY    CLEAR     32  28  85 SE8       30.10R
GREAT BEND     CLEAR     31  28  89 S9        30.14R
LIBERAL        CLOUDY    37  28  70 SE8       30.11R
$$

KSZ066>073-081>083-090>101-180300-
SOUTHEAST KANSAS

CITY           SKY/WX    TMP DP  RH WIND       PRES   REMARKS
CHANUTE        CLEAR     35  33  92 SE7       30.16F
COFFEYVILLE    CLEAR     35  33  92 SE6       30.19R
HUTCHINSON     CLOUDY    31  28  89 CALM      30.14R
MEDICINE LODGE   N/A     43  32  65 SE6       30.14R
NEWTON         CLEAR     39  32  76 CALM      30.14S
PARSONS        CLEAR     34  32  92 CALM      30.18F
WICHITA INTL   CLOUDY    40  32  73 CALM      30.14F
WICHITA JABRA  CLEAR     36  31  82 CALM      30.14S
WINFIELD       PTCLDY    38  32  79 CALM      30.17R
$$

KSZ007>012-019>026-033>040-048>060-102>105-180300-
NORTHEAST KANSAS

CITY           SKY/WX    TMP DP  RH WIND       PRES   REMARKS
CONCORDIA      CLEAR     30  28  92 CALM      30.09S
EMPORIA        CLEAR     38  29  70 W5        30.15R
LAWRENCE       CLEAR     29  29 100 SE3       30.16R
MANHATTAN      CLOUDY    28  25  88 CALM      30.13S
OLATHE IND     CLEAR     32  31  96 S7        30.16R
OLATHE EXE     CLEAR     30  30 100 S5        30.15S
SALINA         CLEAR     34  30  85 CALM      30.12R
TOPEKA BILLARD CLEAR     32  28  85 CALM      30.15R
TOPEKA FORBES  CLEAR     32  28  85 SE3       30.15R
$$




USA.gov is the U.S. government's official web portal to all federal, state and local government web resources and services.